Regional Weather Roundup
Issued by NWS

Home | Current Version | Previous Version | Graphics & Text | Print | Product List | Glossary On
Versions: 1 2 3 4 5 6 7 8 9 10 11 12 13 14 15 16 17 18 19 20 21 22 23 24 25 26 27 28 29 30 31 32 33 34 35 36 37 38 39 40 41 42 43 44 45 46 47 48 49 50
882
ASUS43 KLSX 231407
RWRMO

WEATHER SUMMARY FOR MISSOURI
NATIONAL WEATHER SERVICE SPRINGFIELD MO
800 AM CST THU FEB 23 2017

NOTE: "FAIR" INDICATES FEW OR NO CLOUDS BELOW 12,000 FEET WITH NO
       SIGNIFICANT WEATHER AND/OR OBSTRUCTIONS TO VISIBILITY.
       CURRENT SKY AND/OR WEATHER CONDITIONS ARE NOT AVAILABLE FOR
       CHILLICOTHE AND FARMINGTON.

MOZ001>031-035>038-043-044-053-054-231500-
...NORTHERN AND WESTERN MISSOURI...

CITY           SKY/WX    TMP DP  RH WIND       PRES   REMARKS
KANSAS CTY INT CLOUDY    49  40  71 NE14      29.71R
KANSAS C DTWN  CLOUDY    51  40  65 NE14      29.69S
LEE`S SUMMIT   CLOUDY    50  42  74 NE16      29.68S
ST JOSEPH      LGT RAIN  45  42  89 NE12      29.74R
CHILLICOTHE      N/A     45  39  79 NE8       29.77R
KIRKSVILLE     CLOUDY    40  38  93 N9        29.80R

$$
MOZ066>068-077>081-088>096-101>105-231500-
...SOUTHWEST MISSOURI...

CITY           SKY/WX    TMP DP  RH WIND       PRES   REMARKS
SPRINGFIELD    CLOUDY    54  53  97 SE16      29.68S FOG
JOPLIN         CLOUDY    57  53  86 SE10      29.61F
BRANSON        FOG       52  52 100 SE8       29.71R VSB 1/2

$$
MOZ032>034-039>042-045>050-055>058-069>072-231500-
...CENTRAL MISSOURI...

CITY           SKY/WX    TMP DP  RH WIND       PRES   REMARKS
COLUMBIA       CLOUDY    52  50  93 E6        29.73R
JEFFERSON CITY FOG       48  48 100 CALM      29.73R VSB 1/4
ROLLA          FOG       53  53 100 S6        29.72R VSB<1/4
SEDALIA        CLOUDY    53  47  79 NE10      29.72S
WHITEMAN AFB   PTSUNNY   52  47  83 NE9       29.69R
WARRENSBURG    CLOUDY    50  41  71 NE14      29.69S
OSAGE BEACH    CLOUDY    55  54  96 SE6       29.72S

$$
MOZ051-052-059>065-231500-
...EAST CENTRAL MISSOURI...

CITY           SKY/WX    TMP DP  RH WIND       PRES   REMARKS
ST LOUIS INTL  PTSUNNY   56  52  86 SE5       29.73R
SPIRIT OF STL  CLOUDY    49  49 100 CALM      29.71R FOG
ST CHARLES     FOG       50  50 100 E3        29.72R VSB 1/4

$$
MOZ072>076-082>087-097>100-106>115-231500-
...SOUTH CENTRAL AND SOUTHEAST MISSOURI...

CITY           SKY/WX    TMP DP  RH WIND       PRES   REMARKS
CAPE GIRARDEAU CLOUDY    56  55  97 S7        29.78R FOG
FARMINGTON     CLOUDY    54  54 100 S9        29.75R FOG
POPLAR BLUFF   FOG       53  53 100 SW5       29.79R VSB<1/4
WEST PLAINS    FOG       53  53 100 S5        29.76R VSB 1/2

$$



USA.gov is the U.S. government's official web portal to all federal, state and local government web resources and services.